Regional Weather Roundup
Issued by NWS

Home | Current Version | Previous Version | Text Only | Print | Product List | Glossary On
Versions: 1 2 3 4 5 6 7 8 9 10 11 12 13 14 15 16 17 18 19 20 21 22 23 24 25 26 27 28 29 30 31 32 33 34 35 36 37 38 39 40 41 42 43 44 45 46 47 48 49 50
534
ASUS43 KLOT 231612
RWRIL

ILLINOIS REGIONAL WEATHER ROUNDUP
NATIONAL WEATHER SERVICE CHICAGO/ROMEOVILLE IL
1000 AM CST THU FEB 23 2017

NOTE: "FAIR" INDICATES FEW OR NO CLOUDS BELOW 12,000 FEET WITH NO
SIGNIFICANT WEATHER AND/OR OBSTRUCTIONS TO VISIBILITY.

* THESE STATIONS ARE NOT UNDER NWS QUALITY CONTROL. THEY ALSO MAY NOT
  REPORT WEATHER SUCH AS PRECIPITATION OR FOG.

ILZ001-002-007-009-015-016-024-231700-
NORTHWEST ILLINOIS

CITY           SKY/WX    TMP DP  RH WIND       PRES   REMARKS
MOLINE         CLOUDY    46  41  82 NE9       29.80S
STERLING*      CLOUDY    47  41  80 NE8       29.81S
SAVANNA*       CLOUDY    46  38  75 NE10      29.82R
$$

ILZ003-004-008-010-011-017-018-231700-
NORTH CENTRAL ILLINOIS

CITY           SKY/WX    TMP DP  RH WIND       PRES   REMARKS
ROCKFORD       CLOUDY    49  39  68 NE13      29.82R
FREEPORT*      CLOUDY    43  38  82 N14       29.82R
ROCHELLE*      PTSUNNY   48  41  78 NE10      29.82R
DE KALB*       CLOUDY    48  43  80 N8        29.81R
PERU*          MOSUNNY   48  42  80 N5        29.83R
$$

ILZ005-006-012>014-019>023-231700-
NORTHEAST ILLINOIS

CITY           SKY/WX    TMP DP  RH WIND       PRES   REMARKS
CHICAGO-OHARE  CLOUDY    50  40  68 NE15      29.79S
CHICAGO-MIDWAY PTSUNNY   51  40  65 NE17      29.80R
AURORA         PTSUNNY   52  42  69 E7        29.80R
LANSING*       MOSUNNY   51  44  77 N12G18    29.81R
JOLIET*        MOSUNNY   54  45  70 NE6       29.80R
WAUKEGAN       CLOUDY    41  37  86 NE12G22   29.80R
DUPAGE AIRPORT PTSUNNY   50  41  71 E8        29.79R
KANKAKEE*      SUNNY     55  47  76 NE7       29.78F
WHEELING       CLOUDY    42  36  79 NE16      29.83R
MORRIS*        MOSUNNY   51  44  76 N3        29.80R
ROMEOVILLE*    MOSUNNY   53  45  76 E8        29.80R
NORTHERLY ISL    N/A     44  39  82 N7          N/A
$$

LMZ740>746-231700-
SOUTHERN LAKE MICHIGAN

STATION/POSITION SKY/WX   TEMP    WIND        PRES    VSBY  WAVE
                          AIR SEA DIR/SP/G                  HT/PER
                          (F)     (DEG/KT/KT) (MB)    (MI)  (FT/S)
HARRISON CRIB              43      20/ 12/ 13   N/A
BURNHAM HARBOR             44      10/  9/ 12   N/A
CALUMET HARBOR             45     350/ 11/ 14 1008.9R
BURNS HARBOR               42      20/  7/  8 1010.2R
MICHIGAN CITY              41     360/  5/  6   N/A
$$

ILZ025>027-034>036-040-047-049-050-058-095>099-231700-
WEST-CENTRAL ILLINOIS

CITY           SKY/WX    TMP DP  RH WIND       PRES   REMARKS
QUINCY         CLOUDY    45  43  93 NE16      29.77R FOG
GALESBURG*     CLOUDY    45  42  91 N9        29.79F
MACOMB*        CLOUDY    45  43  95 NE7       29.82S
JACKSONVILLE*  CLOUDY    49  47  92 NE9       29.77R
PITTSFIELD*    CLOUDY    52  48  85 NE12      29.78R
$$

ILZ028>032-037-038-041>044-048-051>054-059>061-231700-
CENTRAL ILLINOIS

CITY           SKY/WX    TMP DP  RH WIND       PRES   REMARKS
PONTIAC        CLOUDY    52  48  87 N13       29.79S
BLOOMINGTON    CLOUDY    50  46  86 N12       29.79R
DECATUR        CLOUDY    54  52  93 CALM      29.75S FOG
PEORIA         CLOUDY    49  44  83 NE9       29.79R
LACON*         PTSUNNY   47  44  87 N7        29.80S
LINCOLN*       CLOUDY    51  51  98 N9        29.77S
SPRINGFIELD    CLOUDY    53  50  89 NE7       29.77R
TAYLORVILLE    CLOUDY    55  55 100 CALM      29.75S
$$

ILZ033-039-045-046-055>057-062-063-231700-
EAST-CENTRAL ILLINOIS

CITY           SKY/WX    TMP DP  RH WIND       PRES   REMARKS
CHAMPAIGN      CLOUDY    55  52  89 SE8       29.75S
RANTOUL*       MOSUNNY   57  51  80 E10       29.74F
MATTOON        CLOUDY    58  58 100 S5        29.75S
PARIS*         CLOUDY    59  57  93 S5        29.77F
$$

ILZ079-100>102-231700-
SOUTHWEST ILLINOIS

CITY           SKY/WX    TMP DP  RH WIND       PRES   REMARKS
ALTON          MOSUNNY   57  55  94 E6        29.74F
BELLEVILLE     MOSUNNY   62  62  99 VRB5      29.73S
CAHOKIA*       MOSUNNY   63  54  72 S5        29.73F
SPARTA*        CLOUDY    58  55  88 S14G20    29.76S
$$

ILZ064>066-069>071-074>076-080>082-084>086-088>090-092>094-231700-
SOUTH-CENTRAL ILLINOIS

CITY           SKY/WX    TMP DP  RH WIND       PRES   REMARKS
CARBONDALE     CLOUDY    60  58  92 SW14      29.77S
CAIRO*         CLOUDY    62  58  86 S8        29.79F
EFFINGHAM*     CLOUDY    60  59  99 SE3       29.76F
MT. VERNON     CLOUDY    61  56  83 S16       29.76F
CENTRALIA*     CLOUDY    64  58  81 S15       29.75R
SALEM*         CLOUDY    63  56  76 S14       29.75S
METROPOLIS*    CLOUDY    64  58  81 S6        29.81S
$$

ILZ067-068-072-073-078-083-087-091-231700-
SOUTHEAST ILLINOIS

CITY           SKY/WX    TMP DP  RH WIND       PRES   REMARKS
LAWRENCEVILLE  SUNNY     64  58  80 S16       29.79S
FLORA*         MOSUNNY   62  59  90 S13       29.77S
FAIRFIELD*     PTSUNNY   64  58  82 S7        29.76F
HARRISBURG*    PTSUNNY   64  58  80 S12       29.78F
ROBINSON*      SUNNY     65  57  75 S14       29.78S
CARMI*         MOSUNNY   64  58  82 S12       29.78S
$$

ABBREVIATIONS USED IN REMARKS
   TC - TEMPERATURE IN CELSIUS
  WCI - WIND CHILL INDEX
   HX - HEAT INDEX
  VSB - VISIBILITY
$$





USA.gov is the U.S. government's official web portal to all federal, state and local government web resources and services.